When you browse on this site, cookies collect data to enhance your experience and personalize the content and advertising you see.
Visit our Privacy Policy to learn more. By continuing to use the site, you agree to this use of cookies and data.
  • In Czech Republic
  • List of Countries
  • For 7 days
  • Water Temperature
  • Satellite Maps
  • Weather Map
  • Weather Widgets
  • user-avatar
    Login

    Hourly Weather Xi'an

    Today, 18 January, Friday

    Time Temperature Precipitation Wind Pressure Humidity
    00:00 +3°C° 0 mm 1 mps 730 mmHg 38%
    01:00 +3°C° 0 mm 1 mps 729 mmHg 39%
    02:00 +3°C° 0 mm 1 mps 729 mmHg 39%
    03:00 +2°C° 0 mm 1 mps 729 mmHg 38%
    04:00 +2°C° 0 mm 1 mps 728 mmHg 38%
    05:00 +2°C° 0 mm 1 mps 729 mmHg 37%
    06:00 +2°C° 0 mm 1 mps 729 mmHg 36%
    07:00 -1°C° 0 mm 2 mps 729 mmHg 35%
    08:00 +1°C° 0 mm 2 mps 729 mmHg 32%
    09:00 +3°C° 0 mm 2 mps 729 mmHg 29%
    10:00 +4°C° 0 mm 2 mps 729 mmHg 26%
    11:00 +6°C° 0 mm 2 mps 728 mmHg 26%
    12:00 +7°C° 0 mm 2 mps 727 mmHg 26%
    13:00 +8°C° 0 mm 2 mps 727 mmHg 26%
    14:00 +8°C° 0 mm 2 mps 727 mmHg 27%
    15:00 +8°C° 0 mm 2 mps 727 mmHg 27%
    16:00 +8°C° 0 mm 2 mps 727 mmHg 28%
    17:00 +7°C° 0 mm 2 mps 727 mmHg 30%
    18:00 +6°C° 0 mm 2 mps 728 mmHg 32%
    19:00 +5°C° 0 mm 2 mps 728 mmHg 33%
    20:00 +5°C° 0 mm 2 mps 729 mmHg 34%
    21:00 +4°C° 0 mm 2 mps 729 mmHg 34%
    22:00 +4°C° 0 mm 2 mps 730 mmHg 35%
    23:00 +3°C° 0 mm 2 mps 730 mmHg 35%

    Tomorrow, 19 January, Saturday

    Time Temperature Precipitation Wind Pressure Humidity
    00:00 +3°C° 0 mm 2 mps 730 mmHg 36%
    01:00 +3°C° 0 mm 2 mps 730 mmHg 37%
    02:00 +3°C° 0 mm 2 mps 730 mmHg 36%
    03:00 +2°C° 0 mm 2 mps 730 mmHg 35%
    04:00 +2°C° 0 mm 2 mps 730 mmHg 35%
    05:00 +3°C° 0 mm 1 mps 731 mmHg 34%
    06:00 +2°C° 0 mm 1 mps 731 mmHg 34%
    07:00 +2°C° 0 mm 1 mps 731 mmHg 34%
    08:00 +3°C° 0 mm 1 mps 731 mmHg 30%
    09:00 +4°C° 0 mm 2 mps 731 mmHg 26%
    10:00 +5°C° 0 mm 2 mps 732 mmHg 22%
    11:00 +6°C° 0 mm 2 mps 731 mmHg 21%
    12:00 +7°C° 0 mm 2 mps 730 mmHg 20%
    13:00 +8°C° 0 mm 2 mps 730 mmHg 19%
    14:00 +8°C° 0 mm 2 mps 730 mmHg 19%
    15:00 +8°C° 0 mm 2 mps 730 mmHg 19%
    16:00 +8°C° 0 mm 2 mps 730 mmHg 19%
    17:00 +7°C° 0 mm 2 mps 731 mmHg 20%
    18:00 +6°C° 0 mm 2 mps 732 mmHg 21%
    19:00 +5°C° 0 mm 2 mps 733 mmHg 23%
    20:00 +5°C° 0 mm 2 mps 734 mmHg 23%
    21:00 +5°C° 0 mm 2 mps 734 mmHg 23%
    22:00 +6°C° 0 mm 1 mps 735 mmHg 23%
    23:00 +5°C° 0 mm 1 mps 735 mmHg 25%

    Day after tomorrow, 20 January, Sunday

    Time Temperature Precipitation Wind Pressure Humidity
    00:00 +4°C° 0 mm 1 mps 735 mmHg 26%
    01:00 +3°C° 0 mm 1 mps 735 mmHg 27%
    02:00 +3°C° 0 mm 1 mps 735 mmHg 28%
    03:00 +2°C° 0 mm 1 mps 735 mmHg 28%
    04:00 +2°C° 0 mm 1 mps 736 mmHg 29%
    05:00 +2°C° 0 mm 1 mps 736 mmHg 29%
    06:00 +1°C° 0 mm 1 mps 737 mmHg 29%
    07:00 +1°C° 0 mm 1 mps 737 mmHg 30%
    08:00 +1°C° 0 mm 2 mps 738 mmHg 29%
    09:00 +3°C° 0 mm 2 mps 738 mmHg 29%
    10:00 +4°C° 0 mm 2 mps 739 mmHg 28%
    11:00 +4°C° 0 mm 2 mps 738 mmHg 28%
    12:00 +5°C° 0 mm 2 mps 737 mmHg 28%
    13:00 +6°C° 0 mm 2 mps 737 mmHg 28%
    14:00 +4°C° 0 mm 3 mps 737 mmHg 29%
    15:00 +4°C° 0 mm 3 mps 737 mmHg 31%
    16:00 +4°C° 0 mm 3 mps 737 mmHg 32%
    17:00 +3°C° 0 mm 3 mps 737 mmHg 35%
    18:00 +3°C° 0 mm 2 mps 738 mmHg 37%
    19:00 +3°C° 0 mm 2 mps 739 mmHg 39%
    20:00 +2°C° 0 mm 2 mps 739 mmHg 39%
    21:00 +2°C° 0 mm 2 mps 739 mmHg 39%
    22:00 +1°C° 0 mm 2 mps 739 mmHg 40%
    23:00 +1°C° 0 mm 2 mps 739 mmHg 40%

    21 January, Monday

    Time Temperature Precipitation Wind Pressure Humidity
    00:00 +1°C° 0 mm 2 mps 738 mmHg 41%
    01:00 -1°C° 0 mm 2 mps 738 mmHg 41%
    02:00 -1°C° 0 mm 2 mps 738 mmHg 42%
    03:00 -1°C° 0 mm 2 mps 737 mmHg 42%
    04:00 -1°C° 0 mm 2 mps 737 mmHg 43%
    05:00 -2°C° 0 mm 2 mps 737 mmHg 43%
    06:00 -2°C° 0 mm 2 mps 738 mmHg 43%
    07:00 -2°C° 0 mm 2 mps 738 mmHg 43%
    08:00 0°C° 0 mm 3 mps 738 mmHg 38%
    09:00 +2°C° 0 mm 3 mps 738 mmHg 33%
    10:00 +3°C° 0 mm 3 mps 738 mmHg 27%
    11:00 +4°C° 0 mm 3 mps 737 mmHg 26%
    12:00 +5°C° 0 mm 3 mps 736 mmHg 25%
    13:00 +7°C° 0 mm 3 mps 735 mmHg 24%
    14:00 +7°C° 0 mm 3 mps 735 mmHg 24%
    15:00 +7°C° 0 mm 3 mps 734 mmHg 24%
    16:00 +7°C° 0 mm 3 mps 734 mmHg 24%
    17:00 +5°C° 0 mm 3 mps 734 mmHg 25%
    18:00 +4°C° 0 mm 3 mps 735 mmHg 25%
    19:00 +3°C° 0 mm 3 mps 735 mmHg 26%
    20:00 +3°C° 0 mm 2 mps 735 mmHg 26%
    21:00 +3°C° 0 mm 2 mps 735 mmHg 25%
    22:00 +3°C° 0 mm 2 mps 735 mmHg 24%
    23:00 +4°C° 0 mm 1 mps 735 mmHg 24%

    22 January, Tuesday

    Time Temperature Precipitation Wind Pressure Humidity
    00:00 +3°C° 0 mm 1 mps 734 mmHg 24%
    01:00 +3°C° 0 mm 1 mps 734 mmHg 23%
    02:00 +3°C° 0 mm 1 mps 734 mmHg 23%
    03:00 +2°C° 0 mm 1 mps 733 mmHg 22%
    04:00 +2°C° 0 mm 1 mps 733 mmHg 21%
    05:00 +2°C° 0 mm 1 mps 733 mmHg 21%
    06:00 +2°C° 0 mm 1 mps 733 mmHg 21%
    07:00 +1°C° 0 mm 1 mps 733 mmHg 20%
    08:00 +4°C° 0 mm 1 mps 733 mmHg 18%
    09:00 +6°C° 0 mm 1 mps 733 mmHg 16%
    10:00 +7°C° 0 mm 0 mps 733 mmHg 13%
    11:00 +9°C° 0 mm 1 mps 732 mmHg 12%
    12:00 +11°C° 0 mm 1 mps 731 mmHg 11%
    13:00 +12°C° 0 mm 1 mps 730 mmHg 10%
    14:00 +12°C° 0 mm 1 mps 729 mmHg 10%
    15:00 +12°C° 0 mm 1 mps 729 mmHg 10%
    16:00 +12°C° 0 mm 2 mps 729 mmHg 10%
    17:00 +9°C° 0 mm 2 mps 729 mmHg 12%
    18:00 +8°C° 0 mm 2 mps 729 mmHg 13%
    19:00 +6°C° 0 mm 2 mps 730 mmHg 15%
    20:00 +6°C° 0 mm 1 mps 730 mmHg 17%
    21:00 +6°C° 0 mm 1 mps 730 mmHg 19%
    22:00 +5°C° 0 mm 1 mps 730 mmHg 22%
    23:00 +5°C° 0 mm 1 mps 730 mmHg 23%

    23 January, Wednesday

    Time Temperature Precipitation Wind Pressure Humidity
    00:00 +5°C° 0 mm 1 mps 729 mmHg 24%
    01:00 +4°C° 0 mm 1 mps 729 mmHg 26%
    02:00 +4°C° 0 mm 1 mps 729 mmHg 26%
    03:00 +4°C° 0 mm 1 mps 729 mmHg 27%
    04:00 +3°C° 0 mm 1 mps 728 mmHg 28%
    05:00 +3°C° 0 mm 1 mps 729 mmHg 28%
    06:00 +3°C° 0 mm 1 mps 729 mmHg 29%
    07:00 +3°C° 0 mm 1 mps 729 mmHg 29%
    08:00 +5°C° 0 mm 1 mps 729 mmHg 26%
    09:00 +6°C° 0 mm 2 mps 729 mmHg 23%
    10:00 +8°C° 0 mm 2 mps 729 mmHg 19%
    11:00 +9°C° 0 mm 2 mps 728 mmHg 18%
    12:00 +11°C° 0 mm 3 mps 727 mmHg 17%
    13:00 +12°C° 0 mm 3 mps 726 mmHg 15%
    14:00 +12°C° 0 mm 3 mps 726 mmHg 16%
    15:00 +12°C° 0 mm 3 mps 726 mmHg 17%
    16:00 +12°C° 0 mm 3 mps 726 mmHg 17%
    17:00 +11°C° 0 mm 3 mps 726 mmHg 19%
    18:00 +9°C° 0 mm 2 mps 727 mmHg 22%
    19:00 +7°C° 0 mm 2 mps 727 mmHg 24%
    20:00 +7°C° 0 mm 2 mps 728 mmHg 26%
    21:00 +7°C° 0 mm 1 mps 728 mmHg 29%
    22:00 +7°C° 0 mm 1 mps 728 mmHg 31%
    23:00 +6°C° 0 mm 1 mps 728 mmHg 32%
    Show more